Hourly Weather Czyczkowy

Today, 17 January, Sunday

Time Temperature Precipitation Wind Pressure Humidity
00:00 -12°C° 0 mm 2 mps 750 mmHg 91%
01:00 -13°C° 0 mm 2 mps 750 mmHg 91%
02:00 -14°C° 0 mm 2 mps 750 mmHg 90%
03:00 -15°C° 0 mm 2 mps 750 mmHg 89%
04:00 -14°C° 0 mm 1 mps 750 mmHg 88%
05:00 -14°C° 0 mm 1 mps 750 mmHg 87%
06:00 -14°C° 0 mm 1 mps 751 mmHg 87%
07:00 -14°C° 0 mm 1 mps 751 mmHg 86%
08:00 -14°C° 0 mm 1 mps 751 mmHg 83%
09:00 -13°C° 0 mm 1 mps 752 mmHg 79%
10:00 -13°C° 0 mm 1 mps 752 mmHg 76%
11:00 -12°C° 0 mm 1 mps 752 mmHg 73%
12:00 -11°C° 0 mm 1 mps 752 mmHg 70%
13:00 -10°C° 0 mm 1 mps 753 mmHg 68%
14:00 -10°C° 0 mm 1 mps 752 mmHg 72%
15:00 -11°C° 0 mm 1 mps 752 mmHg 76%
16:00 -11°C° 0 mm 1 mps 752 mmHg 81%
17:00 -12°C° 0 mm 1 mps 752 mmHg 82%
18:00 -12°C° 0 mm 1 mps 753 mmHg 83%
19:00 -12°C° 0 mm 1 mps 753 mmHg 84%
20:00 -12°C° 0 mm 1 mps 753 mmHg 84%
21:00 -13°C° 0 mm 1 mps 753 mmHg 84%
22:00 -13°C° 0 mm 1 mps 753 mmHg 85%
23:00 -13°C° 0 mm 1 mps 753 mmHg 85%

Tomorrow, 18 January, Monday

Time Temperature Precipitation Wind Pressure Humidity
00:00 -13°C° 0 mm 1 mps 753 mmHg 85%
01:00 -13°C° 0 mm 1 mps 753 mmHg 85%
02:00 -13°C° 0 mm 1 mps 753 mmHg 85%
03:00 -15°C° 0 mm 2 mps 752 mmHg 85%
04:00 -15°C° 0 mm 2 mps 752 mmHg 85%
05:00 -15°C° 0 mm 2 mps 752 mmHg 85%
06:00 -15°C° 0 mm 2 mps 752 mmHg 85%
07:00 -15°C° 0 mm 2 mps 752 mmHg 85%
08:00 -15°C° 0 mm 2 mps 752 mmHg 83%
09:00 -14°C° 0 mm 2 mps 751 mmHg 82%
10:00 -15°C° 0 mm 3 mps 751 mmHg 80%
11:00 -14°C° 0 mm 3 mps 751 mmHg 81%
12:00 -13°C° 0 mm 3 mps 751 mmHg 81%
13:00 -12°C° 0 mm 3 mps 751 mmHg 81%
14:00 -12°C° 0 mm 3 mps 750 mmHg 82%
15:00 -12°C° 0 mm 3 mps 750 mmHg 84%
16:00 -12°C° 0 mm 3 mps 749 mmHg 86%
17:00 -12°C° 0 mm 3 mps 749 mmHg 88%
18:00 -12°C° 0 mm 3 mps 749 mmHg 90%
19:00 -12°C° 0 mm 3 mps 748 mmHg 92%
20:00 -12°C° 0.2 mm 3 mps 748 mmHg 93%
21:00 -10°C° 0.2 mm 3 mps 747 mmHg 93%
22:00 -9°C° 0.2 mm 3 mps 747 mmHg 94%
23:00 -9°C° 0.4 mm 3 mps 746 mmHg 94%

Day after tomorrow, 19 January, Tuesday

Time Temperature Precipitation Wind Pressure Humidity
00:00 -8°C° 0.4 mm 3 mps 746 mmHg 94%
01:00 -7°C° 0.4 mm 3 mps 746 mmHg 95%
02:00 -6°C° 0.2 mm 3 mps 745 mmHg 96%
03:00 -5°C° 0.2 mm 3 mps 745 mmHg 96%
04:00 -2°C° 0.2 mm 2 mps 744 mmHg 97%
05:00 -2°C° 0 mm 3 mps 744 mmHg 97%
06:00 -1°C° 0 mm 3 mps 744 mmHg 97%
07:00 0°C° 0 mm 3 mps 744 mmHg 97%
08:00 0°C° 0.1 mm 3 mps 744 mmHg 97%
09:00 0°C° 0.1 mm 3 mps 744 mmHg 98%
10:00 0°C° 0.1 mm 3 mps 743 mmHg 98%
11:00 0°C° 0 mm 3 mps 743 mmHg 98%
12:00 0°C° 0 mm 3 mps 743 mmHg 98%
13:00 0°C° 0 mm 3 mps 743 mmHg 98%
14:00 0°C° 0.1 mm 3 mps 743 mmHg 98%
15:00 0°C° 0.1 mm 3 mps 742 mmHg 98%
16:00 -1°C° 0.1 mm 3 mps 742 mmHg 98%
17:00 -1°C° 0.1 mm 3 mps 742 mmHg 97%
18:00 -1°C° 0.1 mm 3 mps 742 mmHg 97%
19:00 -2°C° 0.1 mm 4 mps 742 mmHg 97%
20:00 -2°C° 0.1 mm 4 mps 741 mmHg 97%
21:00 -2°C° 0.1 mm 4 mps 741 mmHg 96%
22:00 -2°C° 0.1 mm 4 mps 741 mmHg 96%
23:00 -2°C° 0.1 mm 4 mps 740 mmHg 96%

20 January, Wednesday

Time Temperature Precipitation Wind Pressure Humidity
00:00 -2°C° 0.1 mm 4 mps 740 mmHg 96%
01:00 -2°C° 0.1 mm 4 mps 740 mmHg 96%
02:00 -2°C° 0.3 mm 4 mps 739 mmHg 96%
03:00 -1°C° 0.3 mm 4 mps 739 mmHg 97%
04:00 -1°C° 0.3 mm 4 mps 739 mmHg 98%
05:00 -1°C° 0.4 mm 4 mps 739 mmHg 98%
06:00 0°C° 0.4 mm 4 mps 739 mmHg 98%
07:00 0°C° 0.4 mm 4 mps 738 mmHg 98%
08:00 0°C° 0.4 mm 4 mps 738 mmHg 98%
09:00 0°C° 0.4 mm 4 mps 738 mmHg 98%
10:00 0°C° 0.4 mm 4 mps 738 mmHg 98%
11:00 0°C° 0.4 mm 4 mps 738 mmHg 98%
12:00 0°C° 0.4 mm 5 mps 738 mmHg 98%
13:00 0°C° 0.4 mm 5 mps 738 mmHg 98%
14:00 0°C° 0.3 mm 4 mps 738 mmHg 97%
15:00 0°C° 0.3 mm 4 mps 738 mmHg 97%
16:00 0°C° 0.3 mm 4 mps 738 mmHg 96%
17:00 0°C° 0.2 mm 4 mps 739 mmHg 95%
18:00 0°C° 0.2 mm 4 mps 739 mmHg 95%
19:00 +1°C° 0.2 mm 3 mps 739 mmHg 94%
20:00 +1°C° 0 mm 3 mps 739 mmHg 93%
21:00 0°C° 0 mm 3 mps 739 mmHg 92%
22:00 0°C° 0 mm 3 mps 739 mmHg 91%
23:00 0°C° 0 mm 3 mps 739 mmHg 91%

21 January, Thursday

Time Temperature Precipitation Wind Pressure Humidity
00:00 0°C° 0 mm 3 mps 739 mmHg 91%
01:00 0°C° 0 mm 3 mps 739 mmHg 90%
02:00 0°C° 0 mm 3 mps 738 mmHg 89%
03:00 0°C° 0 mm 3 mps 738 mmHg 89%
04:00 -1°C° 0 mm 3 mps 738 mmHg 88%
05:00 -1°C° 0 mm 3 mps 738 mmHg 86%
06:00 -1°C° 0 mm 4 mps 738 mmHg 84%
07:00 -1°C° 0 mm 4 mps 737 mmHg 83%
08:00 -1°C° 0 mm 4 mps 737 mmHg 82%
09:00 0°C° 0 mm 3 mps 737 mmHg 82%
10:00 +1°C° 0 mm 3 mps 737 mmHg 82%
11:00 +1°C° 0 mm 3 mps 737 mmHg 85%
12:00 +1°C° 0 mm 3 mps 737 mmHg 87%
13:00 +1°C° 0 mm 3 mps 736 mmHg 90%
14:00 0°C° 0 mm 4 mps 736 mmHg 92%
15:00 0°C° 0 mm 4 mps 736 mmHg 93%
16:00 -1°C° 0 mm 5 mps 736 mmHg 94%
17:00 -1°C° 0 mm 4 mps 736 mmHg 94%
18:00 -1°C° 0 mm 4 mps 735 mmHg 94%
19:00 -1°C° 0 mm 4 mps 735 mmHg 93%
20:00 -2°C° 0 mm 4 mps 736 mmHg 93%
21:00 -2°C° 0 mm 4 mps 736 mmHg 93%
22:00 -2°C° 0 mm 4 mps 736 mmHg 92%
23:00 -2°C° 0 mm 4 mps 736 mmHg 92%

22 January, Friday

Time Temperature Precipitation Wind Pressure Humidity
00:00 -1°C° 0 mm 5 mps 736 mmHg 91%
01:00 -1°C° 0 mm 5 mps 736 mmHg 90%
02:00 -1°C° 0 mm 5 mps 736 mmHg 90%
03:00 -1°C° 0 mm 5 mps 736 mmHg 90%
04:00 -1°C° 0 mm 5 mps 736 mmHg 90%
05:00 -1°C° 0 mm 5 mps 736 mmHg 90%
06:00 -2°C° 0 mm 5 mps 736 mmHg 91%
07:00 -2°C° 0 mm 5 mps 735 mmHg 91%
08:00 -1°C° 0 mm 5 mps 735 mmHg 90%
09:00 -1°C° 0 mm 4 mps 736 mmHg 90%
10:00 -1°C° 0 mm 4 mps 736 mmHg 90%
11:00 -1°C° 0 mm 4 mps 736 mmHg 91%
12:00 0°C° 0 mm 4 mps 736 mmHg 92%
13:00 0°C° 0 mm 4 mps 736 mmHg 92%
14:00 +1°C° 0 mm 3 mps 735 mmHg 93%
15:00 0°C° 0 mm 3 mps 735 mmHg 94%
16:00 +1°C° 0 mm 2 mps 735 mmHg 95%
17:00 +1°C° 0 mm 2 mps 735 mmHg 95%
18:00 +1°C° 0 mm 2 mps 735 mmHg 95%
19:00 +1°C° 0 mm 2 mps 735 mmHg 95%
20:00 +2°C° 0 mm 1 mps 735 mmHg 95%
21:00 +2°C° 0 mm 1 mps 735 mmHg 94%
22:00 +2°C° 0 mm 1 mps 736 mmHg 94%
23:00 +2°C° 0 mm 1 mps 736 mmHg 94%
Show more

We Need Your Consent

Meteoprog and our Service Providers may store and access personal data such as cookies, device identifiers or other similar technologies on your device and process such data to personalise content and ads, as well as provide social media features and to analyse the traffic.

  • Store and/or access information on your device

    Cookies, device identifiers or other information can be stored or accessed on your device for the purposes indicated above.

  • Personalised ads and content, ad and content measurement, audience insights, and products development

    Ads and content can be personalised based on a profile. More data can be added to better personalise ads and content. Ad and content performance can be measured. Insights about the audience who saw the ads and content can be derived. Such data can be used to develop or improve user’s experience, systems and software.

By clicking ‘I Agree’ you will allow the use of indicated cookies, device identifiers, web beacons or other similar technologies. Your settings can be changed in the browser on your device.

For certain purposes, legitimate interests may be relied on, rather than consent. You can read more about this in our Privacy and Cookie Policy.